TimeCDT,TemperatureF,Dew PointF,Humidity,Sea Level PressureIn,VisibilityMPH,Wind Direction,Wind SpeedMPH,Gust SpeedMPH,PrecipitationIn,Events,Conditions,WindDirDegrees,DateUTC
12:01 AM,39.2,37.4,93,30.25,0.5,Calm,Calm,-,N/A,Fog,Fog,0,2013-09-17 05:01:00
12:16 AM,37.4,37.4,100,30.24,0.2,Calm,Calm,-,N/A,Fog,Fog,0,2013-09-17 05:16:00
12:23 AM,37.4,35.6,93,30.24,0.5,Calm,Calm,-,N/A,Fog,Fog,0,2013-09-17 05:23:00
12:39 AM,37.4,35.6,93,30.24,0.5,Calm,Calm,-,N/A,Fog,Fog,0,2013-09-17 05:39:00
12:53 AM,37.0,35.1,93,30.27,0.5,SSE,3.5,-,N/A,Fog,Fog,150,2013-09-17 05:53:00
1:11 AM,37.4,35.6,93,30.24,1.2,Calm,Calm,-,N/A,,Partly Cloudy,0,2013-09-17 06:11:00
1:21 AM,35.6,33.8,93,30.24,0.5,Calm,Calm,-,N/A,Fog,Fog,0,2013-09-17 06:21:00
1:53 AM,33.1,32.0,96,30.27,0.5,Calm,Calm,-,N/A,Fog,Fog,0,2013-09-17 06:53:00
2:02 AM,33.8,32.0,93,30.24,2.0,Calm,Calm,-,N/A,,Clear,0,2013-09-17 07:02:00
2:13 AM,33.8,32.0,93,30.24,0.8,Calm,Calm,-,N/A,,Clear,0,2013-09-17 07:13:00
2:44 AM,33.8,30.2,87,30.23,1.5,Calm,Calm,-,N/A,,Clear,0,2013-09-17 07:44:00
2:53 AM,33.1,30.9,92,30.26,1.2,Calm,Calm,-,N/A,,Scattered Clouds,0,2013-09-17 07:53:00
3:00 AM,33.8,30.2,87,30.23,1.0,Calm,Calm,-,N/A,,Mist,0,2013-09-17 08:00:00
3:17 AM,32.0,30.2,93,30.23,0.8,Calm,Calm,-,N/A,,Mist,0,2013-09-17 08:17:00
3:31 AM,32.0,30.2,93,30.23,1.0,Calm,Calm,-,N/A,,Mist,0,2013-09-17 08:31:00
3:40 AM,30.2,28.4,93,30.22,1.0,Calm,Calm,-,N/A,,Clear,0,2013-09-17 08:40:00
3:53 AM,32.0,30.0,92,30.26,0.8,Calm,Calm,-,N/A,,Clear,0,2013-09-17 08:53:00
4:04 AM,30.2,28.4,93,30.22,1.0,Calm,Calm,-,N/A,,Mist,0,2013-09-17 09:04:00
4:19 AM,30.2,30.2,100,30.22,1.2,Calm,Calm,-,N/A,,Clear,0,2013-09-17 09:19:00
4:47 AM,30.2,28.4,93,30.21,3.0,Calm,Calm,-,N/A,,Clear,0,2013-09-17 09:47:00
4:53 AM,30.9,28.9,92,30.24,10.0,Calm,Calm,-,N/A,,Clear,0,2013-09-17 09:53:00
5:53 AM,30.9,28.9,92,30.23,10.0,Calm,Calm,-,N/A,,Clear,0,2013-09-17 10:53:00
6:53 AM,30.0,28.0,92,30.23,10.0,Calm,Calm,-,N/A,,Clear,0,2013-09-17 11:53:00
7:53 AM,35.1,32.0,89,30.23,10.0,SE,3.5,-,N/A,,Clear,130,2013-09-17 12:53:00
8:53 AM,46.9,43.0,86,30.21,10.0,SSE,4.6,-,N/A,,Scattered Clouds,160,2013-09-17 13:53:00
9:01 AM,46.4,42.8,87,30.18,10.0,South,3.5,-,N/A,,Mostly Cloudy,170,2013-09-17 14:01:00
9:17 AM,50.0,44.6,82,30.17,10.0,South,4.6,-,N/A,,Scattered Clouds,190,2013-09-17 14:17:00
9:53 AM,54.0,46.0,75,30.19,10.0,SSE,8.1,-,N/A,,Clear,160,2013-09-17 14:53:00
10:53 AM,60.1,46.9,62,30.16,10.0,South,9.2,-,N/A,,Scattered Clouds,190,2013-09-17 15:53:00
11:08 AM,60.8,46.4,59,30.13,10.0,South,10.4,18.4,N/A,,Mostly Cloudy,170,2013-09-17 16:08:00
11:21 AM,62.6,48.2,59,30.13,10.0,South,10.4,19.6,N/A,,Scattered Clouds,190,2013-09-17 16:21:00
11:53 AM,63.0,46.9,56,30.13,10.0,SSW,12.7,23.0,N/A,,Clear,200,2013-09-17 16:53:00
12:53 PM,64.9,48.0,54,30.11,10.0,SSW,10.4,20.7,N/A,,Clear,210,2013-09-17 17:53:00
1:53 PM,66.9,48.0,51,30.08,10.0,South,11.5,21.9,N/A,,Clear,180,2013-09-17 18:53:00
2:53 PM,68.0,48.0,49,30.05,10.0,South,11.5,23.0,N/A,,Clear,190,2013-09-17 19:53:00
3:53 PM,69.1,48.9,49,30.02,10.0,SSW,8.1,18.4,N/A,,Clear,210,2013-09-17 20:53:00
4:53 PM,66.9,48.9,52,30.01,10.0,SSE,8.1,-,N/A,,Overcast,160,2013-09-17 21:53:00
5:53 PM,66.0,50.0,56,30.00,10.0,South,6.9,-,N/A,,Overcast,170,2013-09-17 22:53:00
6:53 PM,64.9,51.1,61,29.99,10.0,South,5.8,-,N/A,,Overcast,170,2013-09-17 23:53:00
7:53 PM,63.0,50.0,63,29.99,10.0,South,5.8,-,N/A,,Overcast,170,2013-09-18 00:53:00
8:53 PM,63.0,50.0,63,29.98,10.0,South,9.2,17.3,N/A,,Overcast,180,2013-09-18 01:53:00
9:53 PM,62.1,48.9,62,29.96,10.0,South,9.2,18.4,N/A,,Overcast,170,2013-09-18 02:53:00
10:53 PM,60.1,50.0,69,29.96,10.0,South,8.1,-,N/A,,Overcast,180,2013-09-18 03:53:00
11:53 PM,59.0,52.0,78,29.95,10.0,Variable,6.9,18.4,N/A,,Overcast,0,2013-09-18 04:53:00